Starlink 30239

operational
NORAD ID: 57291 Int'l Des: 2023-096 Owner: SPXS Country: US Constellation: starlink
LEOCIRCULAR

Starlink 30239について

説明を読み込み中...

リアルタイム位置

3D地球を読み込み中...

次回通過

高度履歴

Altitude vs Time

uPlot chart will show altitude changes over time

軌道要素

1 57291U 23096B 25260.51621974 -.00001041 00000-0 -61988-4 0 9998
2 57291 43.0044 84.4815 0001285 264.3320 95.7376 15.02531692121563
Epoch: Sep 17, 2025 • Age: 23 hours

現在のステータス

高度 563.3 km
速度 7.58 km/s
衛星直下点 -20.61°S, 110.3°E
打ち上げ日 Jul 10, 2023
運用期間 2.1 years
タイプ internet

技術仕様

分類 Payload
質量 730.00 kg
乾燥質量 700.00 kg
総質量 730.00 kg
長さ 0.30 m
直径 4.10 m
スパン 29.00 m
形状 Box + pan
製造者 SPXS
バスタイプ Starlink V2M
フェーズステータス In Orbit
所有者/国 SPXS/US

大規模コンステレーション

Loading constellations...